N27JY KHPN-KAUS

Flight info

Callsign N27JY
Flight time 3h 16m
Altitude 36000
Route PARKE J6 LRP/N0466F320 J6 MRB/N0470F360 J6 HVQ YOCKY/N0467F380 LITTR WINDU SEWZY6
Aircraft CL60/M-SBDE1E2E3FGHIJ1J4J5J7M3RWXYZ/LB1V1D1

Departure

Time 2026-04-21 21:16
Airport Westchester County Airport (KHPN)

Arrival

Time 2026-04-22 00:33
Airport Austin Bergstrom International Airport (KAUS)
Time Latitude Longitude Altitude Speed Heading
2026-04-21 20:41 41.06377 -73.71149 402 ft 0 kts 284°
2026-04-21 21:11 41.06378 -73.71153 402 ft 3 kts 284°
2026-04-21 21:11 41.06416 -73.71203 403 ft 10 kts 343°
2026-04-21 21:12 41.06492 -73.71220 403 ft 11 kts 355°
2026-04-21 21:12 41.06526 -73.71323 402 ft 14 kts 280°
2026-04-21 21:12 41.06546 -73.71433 401 ft 9 kts 306°
2026-04-21 21:12 41.06614 -73.71420 400 ft 12 kts 38°
2026-04-21 21:13 41.06694 -73.71344 400 ft 15 kts 33°
2026-04-21 21:13 41.06783 -73.71265 403 ft 15 kts 34°
2026-04-21 21:13 41.06873 -73.71190 407 ft 14 kts 33°
2026-04-21 21:13 41.06953 -73.71115 411 ft 13 kts 35°
2026-04-21 21:14 41.07037 -73.71101 414 ft 13 kts 333°
2026-04-21 21:14 41.07117 -73.71162 417 ft 13 kts 329°
2026-04-21 21:14 41.07199 -73.71227 420 ft 13 kts 329°
2026-04-21 21:14 41.07280 -73.71289 424 ft 13 kts 329°
2026-04-21 21:15 41.07360 -73.71350 426 ft 13 kts 330°
2026-04-21 21:15 41.07450 -73.71418 427 ft 15 kts 330°
2026-04-21 21:15 41.07505 -73.71430 427 ft 6 kts 45°
2026-04-21 21:15 41.07531 -73.71375 428 ft 9 kts 59°
2026-04-21 21:16 41.07504 -73.71287 429 ft 16 kts 150°
2026-04-21 21:16 41.07120 -73.70992 418 ft 113 kts 150°
2026-04-21 21:16 41.06214 -73.70323 504 ft 176 kts 152°
2026-04-21 21:16 41.05123 -73.69551 1464 ft 181 kts 156°
2026-04-21 21:17 41.03921 -73.69448 2450 ft 184 kts 198°
2026-04-21 21:17 41.02904 -73.70406 3317 ft 194 kts 237°
2026-04-21 21:17 41.02541 -73.72114 4299 ft 206 kts 275°
2026-04-21 21:17 41.03062 -73.73833 5517 ft 207 kts 303°
2026-04-21 21:18 41.03920 -73.75350 6483 ft 220 kts 307°
2026-04-21 21:18 41.04926 -73.77042 7244 ft 243 kts 307°
2026-04-21 21:18 41.05900 -73.78871 8438 ft 247 kts 297°
2026-04-21 21:18 41.06304 -73.81029 9748 ft 251 kts 275°
2026-04-21 21:19 41.05946 -73.83311 10932 ft 264 kts 258°
2026-04-21 21:19 41.05272 -73.85596 11922 ft 273 kts 257°
2026-04-21 21:19 41.04583 -73.87913 13004 ft 277 kts 257°
2026-04-21 21:19 41.03873 -73.90301 14072 ft 282 kts 258°
2026-04-21 21:20 41.03162 -73.92696 15042 ft 287 kts 258°
2026-04-21 21:20 41.02426 -73.95172 16039 ft 291 kts 258°
2026-04-21 21:20 41.01675 -73.97700 16934 ft 297 kts 257°
2026-04-21 21:20 41.00925 -74.00218 17826 ft 300 kts 258°
2026-04-21 21:21 41.00149 -74.02829 18641 ft 305 kts 258°
2026-04-21 21:21 40.99368 -74.05449 19457 ft 309 kts 258°
2026-04-21 21:21 40.98573 -74.08115 20244 ft 314 kts 258°
2026-04-21 21:21 40.97765 -74.10815 21068 ft 316 kts 258°
2026-04-21 21:22 40.96951 -74.13560 21417 ft 333 kts 258°
2026-04-21 21:22 40.96070 -74.16550 21427 ft 359 kts 257°
2026-04-21 21:22 40.95118 -74.19754 21612 ft 378 kts 257°
2026-04-21 21:22 40.94218 -74.22759 22003 ft 388 kts 257°
2026-04-21 21:23 40.93213 -74.26103 22610 ft 392 kts 256°
2026-04-21 21:23 40.92198 -74.29472 23221 ft 396 kts 256°
2026-04-21 21:23 40.91159 -74.32916 23843 ft 400 kts 256°
2026-04-21 21:23 40.90120 -74.36355 24452 ft 403 kts 257°
2026-04-21 21:24 40.89074 -74.39814 25026 ft 406 kts 257°
2026-04-21 21:24 40.88009 -74.43340 25562 ft 410 kts 256°
2026-04-21 21:24 40.86943 -74.46857 26085 ft 413 kts 256°
2026-04-21 21:24 40.85882 -74.50358 26534 ft 417 kts 256°
2026-04-21 21:25 40.84787 -74.53967 26962 ft 421 kts 256°
2026-04-21 21:25 40.83693 -74.57569 27419 ft 424 kts 256°
2026-04-21 21:25 40.82595 -74.61171 27924 ft 424 kts 256°
2026-04-21 21:25 40.81484 -74.64821 28288 ft 428 kts 256°
2026-04-21 21:26 40.80364 -74.68495 28591 ft 433 kts 256°
2026-04-21 21:26 40.79230 -74.72208 28945 ft 436 kts 256°
2026-04-21 21:26 40.78084 -74.75957 29327 ft 439 kts 255°
2026-04-21 21:26 40.76925 -74.79739 29690 ft 441 kts 255°
2026-04-21 21:27 40.75753 -74.83559 30116 ft 441 kts 255°
2026-04-21 21:27 40.74604 -74.87295 30582 ft 439 kts 255°
2026-04-21 21:27 40.73431 -74.91102 31055 ft 438 kts 255°
2026-04-21 21:27 40.72279 -74.94840 31522 ft 436 kts 255°
2026-04-21 21:28 40.71137 -74.98540 31954 ft 434 kts 255°
2026-04-21 21:28 40.69991 -75.02248 32387 ft 432 kts 256°
2026-04-21 21:28 40.67495 -75.09515 33095 ft 439 kts 248°
2026-04-21 21:29 40.65929 -75.12957 33419 ft 440 kts 247°
2026-04-21 21:29 40.64357 -75.16396 33734 ft 440 kts 247°
2026-04-21 21:29 40.62773 -75.19863 34064 ft 439 kts 247°
2026-04-21 21:29 40.61195 -75.23314 34361 ft 439 kts 247°
2026-04-21 21:30 40.59627 -75.26736 34651 ft 438 kts 247°
2026-04-21 21:30 40.58054 -75.30169 34915 ft 437 kts 247°
2026-04-21 21:30 40.56489 -75.33581 35198 ft 436 kts 247°
2026-04-21 21:30 40.54916 -75.37008 35453 ft 435 kts 246°
2026-04-21 21:31 40.53357 -75.40401 35660 ft 436 kts 247°
2026-04-21 21:31 40.51766 -75.43860 35896 ft 435 kts 246°
2026-04-21 21:31 40.50208 -75.47244 36123 ft 434 kts 246°
2026-04-21 21:31 40.48632 -75.50663 36249 ft 437 kts 246°
2026-04-21 21:32 40.47061 -75.54073 36250 ft 442 kts 246°
2026-04-21 21:32 40.43854 -75.61018 36254 ft 447 kts 246°
2026-04-21 21:33 40.40601 -75.68038 36244 ft 448 kts 245°
2026-04-21 21:33 40.37359 -75.75015 36243 ft 447 kts 245°
2026-04-21 21:34 40.34131 -75.81950 36246 ft 447 kts 245°
2026-04-21 21:34 40.30869 -75.88943 36236 ft 446 kts 245°
2026-04-21 21:35 40.27632 -75.95868 36246 ft 446 kts 245°
2026-04-21 21:35 40.24436 -76.02694 36240 ft 446 kts 245°
2026-04-21 21:36 40.21167 -76.09657 36230 ft 446 kts 245°
2026-04-21 21:36 40.17893 -76.16616 36237 ft 446 kts 245°
2026-04-21 21:37 40.14608 -76.23587 36236 ft 450 kts 245°
2026-04-21 21:37 40.11309 -76.30599 36238 ft 455 kts 245°
2026-04-21 21:38 40.08007 -76.37767 36231 ft 458 kts 245°
2026-04-21 21:38 40.04781 -76.44754 36234 ft 457 kts 245°
2026-04-21 21:39 40.01473 -76.51899 36227 ft 456 kts 245°
2026-04-21 21:39 39.98162 -76.59036 36229 ft 455 kts 245°
2026-04-21 21:40 39.94864 -76.66126 36226 ft 455 kts 245°
2026-04-21 21:40 39.91573 -76.73188 36229 ft 455 kts 245°
2026-04-21 21:41 39.88275 -76.80248 36229 ft 454 kts 244°
2026-04-21 21:41 39.84990 -76.87263 36226 ft 454 kts 244°
2026-04-21 21:42 39.81673 -76.94331 36225 ft 454 kts 244°
2026-04-21 21:42 39.78370 -77.01356 36221 ft 454 kts 244°
2026-04-21 21:43 39.75040 -77.08421 36229 ft 455 kts 244°
2026-04-21 21:43 39.71726 -77.15435 36217 ft 455 kts 244°
2026-04-21 21:44 39.68398 -77.22463 36211 ft 455 kts 244°
2026-04-21 21:44 39.65093 -77.29428 36215 ft 454 kts 244°
2026-04-21 21:45 39.61755 -77.36448 36210 ft 454 kts 244°
2026-04-21 21:45 39.58419 -77.43446 36220 ft 453 kts 244°
2026-04-21 21:46 39.55217 -77.50150 36217 ft 453 kts 244°
2026-04-21 21:46 39.51886 -77.57108 36210 ft 453 kts 244°
2026-04-21 21:47 39.48544 -77.64074 36203 ft 453 kts 244°
2026-04-21 21:47 39.45210 -77.71007 36200 ft 452 kts 243°
2026-04-21 21:48 39.41828 -77.78027 36189 ft 453 kts 243°
2026-04-21 21:48 39.38510 -77.84941 36186 ft 451 kts 245°
2026-04-21 21:49 39.35601 -77.92176 36187 ft 448 kts 248°
2026-04-21 21:49 39.32758 -77.99363 36179 ft 448 kts 248°
2026-04-21 21:50 39.29920 -78.06513 36176 ft 447 kts 248°
2026-04-21 21:50 39.27057 -78.13705 36180 ft 446 kts 248°
2026-04-21 21:51 39.24200 -78.20862 36181 ft 447 kts 248°
2026-04-21 21:51 39.21433 -78.27780 36179 ft 447 kts 248°
2026-04-21 21:52 39.18571 -78.34914 36175 ft 447 kts 248°
2026-04-21 21:52 39.15682 -78.42097 36169 ft 447 kts 248°
2026-04-21 21:53 39.12791 -78.49267 36159 ft 447 kts 248°
2026-04-21 21:53 39.09911 -78.56393 36171 ft 447 kts 248°
2026-04-21 21:54 39.07029 -78.63505 36172 ft 447 kts 248°
2026-04-21 21:54 39.04162 -78.70567 36165 ft 448 kts 247°
2026-04-21 21:55 39.01248 -78.77727 36164 ft 448 kts 247°
2026-04-21 21:55 38.98362 -78.84799 36160 ft 448 kts 247°
2026-04-21 21:56 38.95482 -78.91840 36148 ft 448 kts 247°
2026-04-21 21:56 38.92579 -78.98920 36159 ft 448 kts 247°
2026-04-21 21:57 38.89652 -79.06042 36153 ft 448 kts 247°
2026-04-21 21:57 38.86718 -79.13165 36154 ft 447 kts 247°
2026-04-21 21:58 38.84044 -79.20342 36164 ft 440 kts 256°
2026-04-21 21:58 38.82570 -79.27879 36169 ft 435 kts 262°
2026-04-21 21:59 38.81208 -79.35445 36175 ft 434 kts 262°
2026-04-21 21:59 38.79866 -79.42880 36180 ft 434 kts 262°
2026-04-21 22:00 38.78497 -79.50434 36186 ft 433 kts 262°
2026-04-21 22:00 38.77127 -79.57965 36183 ft 433 kts 262°
2026-04-21 22:01 38.75784 -79.65325 36184 ft 432 kts 261°
2026-04-21 22:01 38.74399 -79.72884 36188 ft 432 kts 261°
2026-04-21 22:02 38.73006 -79.80457 36186 ft 432 kts 261°
2026-04-21 22:02 38.71617 -79.87981 36183 ft 431 kts 261°
2026-04-21 22:03 38.70216 -79.95543 36189 ft 431 kts 261°
2026-04-21 22:03 38.68831 -80.02992 36187 ft 429 kts 261°
2026-04-21 22:04 38.67429 -80.10499 36185 ft 428 kts 261°
2026-04-21 22:04 38.66045 -80.17886 36184 ft 428 kts 261°
2026-04-21 22:05 38.64636 -80.25375 36179 ft 427 kts 261°
2026-04-21 22:05 38.63230 -80.32821 36187 ft 427 kts 261°
2026-04-21 22:06 38.61813 -80.40295 36208 ft 427 kts 261°
2026-04-21 22:06 38.61112 -80.43977 36589 ft 422 kts 261°
2026-04-21 22:06 38.60421 -80.47596 37198 ft 414 kts 261°
2026-04-21 22:06 38.59734 -80.51189 37781 ft 407 kts 261°
2026-04-21 22:07 38.59065 -80.54683 38159 ft 404 kts 261°
2026-04-21 22:07 38.57720 -80.61719 38173 ft 411 kts 261°
2026-04-21 22:08 38.56342 -80.68895 38172 ft 418 kts 261°
2026-04-21 22:08 38.54965 -80.76037 38164 ft 424 kts 261°
2026-04-21 22:09 38.53545 -80.83374 38182 ft 426 kts 260°
2026-04-21 22:09 38.52105 -80.90779 38173 ft 426 kts 261°
2026-04-21 22:10 38.50668 -80.98140 38167 ft 425 kts 261°
2026-04-21 22:10 38.49237 -81.05443 38161 ft 424 kts 261°
2026-04-21 22:11 38.47794 -81.12785 38163 ft 423 kts 261°
2026-04-21 22:11 38.46360 -81.20055 38149 ft 423 kts 260°
2026-04-21 22:12 38.44911 -81.27377 38155 ft 423 kts 260°
2026-04-21 22:12 38.43467 -81.34647 38157 ft 422 kts 261°
2026-04-21 22:13 38.42007 -81.41972 38165 ft 422 kts 261°
2026-04-21 22:13 38.40554 -81.49237 38158 ft 422 kts 260°
2026-04-21 22:14 38.39093 -81.56513 38161 ft 422 kts 261°
2026-04-21 22:14 38.37638 -81.63737 38162 ft 422 kts 260°
2026-04-21 22:15 38.36174 -81.70984 38159 ft 422 kts 260°
2026-04-21 22:15 38.34687 -81.78052 38148 ft 424 kts 256°
2026-04-21 22:16 38.32715 -81.85135 38148 ft 425 kts 255°
2026-04-21 22:16 38.30725 -81.92212 38148 ft 424 kts 255°
2026-04-21 22:17 38.28742 -81.99259 38153 ft 424 kts 255°
2026-04-21 22:17 38.26754 -82.06306 38147 ft 423 kts 255°
2026-04-21 22:18 38.24760 -82.13360 38148 ft 422 kts 255°
2026-04-21 22:18 38.22774 -82.20373 38147 ft 422 kts 255°
2026-04-21 22:19 38.20782 -82.27386 38149 ft 422 kts 255°
2026-04-21 22:19 38.18811 -82.34315 38154 ft 422 kts 255°
2026-04-21 22:20 38.16813 -82.41319 38148 ft 421 kts 255°
2026-04-21 22:20 38.14805 -82.48337 38145 ft 421 kts 255°
2026-04-21 22:21 38.12807 -82.55306 38144 ft 421 kts 255°
2026-04-21 22:21 38.10798 -82.62293 38149 ft 421 kts 255°
2026-04-21 22:22 38.08769 -82.69335 38150 ft 421 kts 254°
2026-04-21 22:22 38.06757 -82.76297 38141 ft 421 kts 254°
2026-04-21 22:23 38.04727 -82.83303 38139 ft 421 kts 254°
2026-04-21 22:23 38.02681 -82.90347 38133 ft 421 kts 254°
2026-04-21 22:24 38.00654 -82.97309 38135 ft 420 kts 254°
2026-04-21 22:24 37.98613 -83.04300 38138 ft 420 kts 254°
2026-04-21 22:25 37.96579 -83.11247 38142 ft 420 kts 254°
2026-04-21 22:25 37.94607 -83.17969 38142 ft 420 kts 254°
2026-04-21 22:26 37.92565 -83.24908 38152 ft 419 kts 254°
2026-04-21 22:26 37.90522 -83.31838 38152 ft 421 kts 254°
2026-04-21 22:27 37.88438 -83.38892 38158 ft 427 kts 254°
2026-04-21 22:27 37.86334 -83.45991 38156 ft 431 kts 253°
2026-04-21 22:28 37.84201 -83.53166 38160 ft 433 kts 253°
2026-04-21 22:28 37.82131 -83.60113 38158 ft 432 kts 253°
2026-04-21 22:29 37.80074 -83.66994 38156 ft 427 kts 253°
2026-04-21 22:29 37.77985 -83.73966 38162 ft 422 kts 253°
2026-04-21 22:30 37.75891 -83.80938 38162 ft 421 kts 253°
2026-04-21 22:30 37.73793 -83.87910 38156 ft 421 kts 253°
2026-04-21 22:31 37.71702 -83.94839 38157 ft 422 kts 253°
2026-04-21 22:31 37.69589 -84.01824 38148 ft 422 kts 253°
2026-04-21 22:32 37.67489 -84.08746 38167 ft 422 kts 253°
2026-04-21 22:32 37.65439 -84.15490 38172 ft 422 kts 252°
2026-04-21 22:33 37.63204 -84.22420 38185 ft 423 kts 252°
2026-04-21 22:33 37.60959 -84.29312 38188 ft 424 kts 251°
2026-04-21 22:34 37.58717 -84.36179 38188 ft 424 kts 251°
2026-04-21 22:34 37.56461 -84.43075 38182 ft 424 kts 251°
2026-04-21 22:35 37.54208 -84.49945 38177 ft 424 kts 251°
2026-04-21 22:35 37.51951 -84.56814 38171 ft 425 kts 251°
2026-04-21 22:36 37.48552 -84.67131 38185 ft 425 kts 251°
2026-04-21 22:36 37.46279 -84.74008 38183 ft 426 kts 251°
2026-04-21 22:37 37.44052 -84.80733 38185 ft 427 kts 251°
2026-04-21 22:37 37.41763 -84.87627 38180 ft 426 kts 251°
2026-04-21 22:38 37.39461 -84.94542 38174 ft 426 kts 251°
2026-04-21 22:38 37.37212 -85.01285 38185 ft 425 kts 251°
2026-04-21 22:39 37.34927 -85.08119 38181 ft 426 kts 251°
2026-04-21 22:39 37.32629 -85.14978 38198 ft 426 kts 250°
2026-04-21 22:40 37.30326 -85.21838 38200 ft 427 kts 250°
2026-04-21 22:40 37.28004 -85.28735 38196 ft 428 kts 251°
2026-04-21 22:41 37.25691 -85.35590 38185 ft 428 kts 251°
2026-04-21 22:41 37.23360 -85.42483 38172 ft 428 kts 250°
2026-04-21 22:42 37.21040 -85.49326 38165 ft 428 kts 250°
2026-04-21 22:42 37.18705 -85.56197 38164 ft 428 kts 250°
2026-04-21 22:43 37.16352 -85.63107 38167 ft 429 kts 250°
2026-04-21 22:43 37.14029 -85.69913 38166 ft 430 kts 250°
2026-04-21 22:44 37.11681 -85.76777 38170 ft 430 kts 250°
2026-04-21 22:44 37.09370 -85.83516 38179 ft 430 kts 250°
2026-04-21 22:45 37.06995 -85.90427 38183 ft 431 kts 249°
2026-04-21 22:45 37.04691 -85.97115 38186 ft 431 kts 249°
2026-04-21 22:46 37.02345 -86.03909 38184 ft 431 kts 249°
2026-04-21 22:46 36.99963 -86.10792 38178 ft 431 kts 250°
2026-04-21 22:47 36.97581 -86.17659 38172 ft 431 kts 250°
2026-04-21 22:47 36.95197 -86.24519 38174 ft 430 kts 250°
2026-04-21 22:48 36.92807 -86.31377 38178 ft 430 kts 249°
2026-04-21 22:48 36.90400 -86.38271 38179 ft 430 kts 249°
2026-04-21 22:49 36.87998 -86.45135 38184 ft 430 kts 249°
2026-04-21 22:49 36.85589 -86.52001 38174 ft 430 kts 249°
2026-04-21 22:50 36.83184 -86.58842 38170 ft 430 kts 250°
2026-04-21 22:50 36.80764 -86.65709 38173 ft 431 kts 249°
2026-04-21 22:51 36.78347 -86.72554 38179 ft 432 kts 249°
2026-04-21 22:51 36.75912 -86.79433 38174 ft 432 kts 249°
2026-04-21 22:52 36.73478 -86.86295 38174 ft 432 kts 249°
2026-04-21 22:52 36.71093 -86.93002 38170 ft 432 kts 249°
2026-04-21 22:53 36.68648 -86.99861 38170 ft 431 kts 249°
2026-04-21 22:53 36.66194 -87.06734 38176 ft 431 kts 249°
2026-04-21 22:54 36.63833 -87.13331 38178 ft 431 kts 249°
2026-04-21 22:54 36.61370 -87.20199 38179 ft 431 kts 249°
2026-04-21 22:55 36.58923 -87.27004 38190 ft 431 kts 249°
2026-04-21 22:55 36.56448 -87.33871 38193 ft 431 kts 249°
2026-04-21 22:56 36.53976 -87.40718 38194 ft 431 kts 249°
2026-04-21 22:56 36.51511 -87.47528 38189 ft 432 kts 249°
2026-04-21 22:57 36.49026 -87.54380 38191 ft 433 kts 249°
2026-04-21 22:57 36.46534 -87.61237 38180 ft 433 kts 249°
2026-04-21 22:58 36.44036 -87.68092 38178 ft 433 kts 248°
2026-04-21 22:58 36.42795 -87.71493 38350 ft 432 kts 248°
2026-04-21 22:58 36.41558 -87.74876 38977 ft 423 kts 248°
2026-04-21 22:59 36.40361 -87.78143 39655 ft 413 kts 248°
2026-04-21 22:59 36.39179 -87.81369 40041 ft 406 kts 248°
2026-04-21 22:59 36.38007 -87.84568 40154 ft 406 kts 248°
2026-04-21 22:59 36.36833 -87.87769 40174 ft 409 kts 248°
2026-04-21 23:00 36.34451 -87.94257 40181 ft 413 kts 248°
2026-04-21 23:00 36.32044 -88.00796 40177 ft 418 kts 248°
2026-04-21 23:01 36.29620 -88.07366 40178 ft 421 kts 248°
2026-04-21 23:01 36.27152 -88.14043 40177 ft 425 kts 248°
2026-04-21 23:02 36.24668 -88.20749 40181 ft 429 kts 248°
2026-04-21 23:02 36.22164 -88.27491 40184 ft 432 kts 248°
2026-04-21 23:03 36.19636 -88.34286 40190 ft 433 kts 248°
2026-04-21 23:03 36.17114 -88.41045 40195 ft 432 kts 248°
2026-04-21 23:04 36.14645 -88.47651 40185 ft 431 kts 248°
2026-04-21 23:04 36.12125 -88.54381 40192 ft 431 kts 248°
2026-04-21 23:05 36.09591 -88.61131 40191 ft 431 kts 248°
2026-04-21 23:05 36.07039 -88.67915 40190 ft 432 kts 248°
2026-04-21 23:06 36.04487 -88.74686 40184 ft 432 kts 248°
2026-04-21 23:06 36.01931 -88.81452 40185 ft 433 kts 248°
2026-04-21 23:07 35.99377 -88.88200 40179 ft 433 kts 248°
2026-04-21 23:07 35.96788 -88.95023 40179 ft 432 kts 248°
2026-04-21 23:08 35.94213 -89.01795 40184 ft 433 kts 248°
2026-04-21 23:08 35.91626 -89.08584 40186 ft 433 kts 248°
2026-04-21 23:09 35.89048 -89.15335 40180 ft 433 kts 248°
2026-04-21 23:09 35.86453 -89.22118 40181 ft 434 kts 248°
2026-04-21 23:10 35.83852 -89.28901 40173 ft 435 kts 248°
2026-04-21 23:10 35.81316 -89.35499 40180 ft 435 kts 247°
2026-04-21 23:11 35.78732 -89.42211 40180 ft 434 kts 248°
2026-04-21 23:11 35.76101 -89.49027 40181 ft 434 kts 248°
2026-04-21 23:12 35.73508 -89.55733 40178 ft 435 kts 248°
2026-04-21 23:12 35.70958 -89.62317 40178 ft 435 kts 248°
2026-04-21 23:13 35.68375 -89.68970 40183 ft 435 kts 247°
2026-04-21 23:13 35.65754 -89.75703 40180 ft 435 kts 247°
2026-04-21 23:14 35.63185 -89.82292 40198 ft 433 kts 247°
2026-04-21 23:14 35.60561 -89.89010 40193 ft 435 kts 247°
2026-04-21 23:15 35.57929 -89.95732 40185 ft 436 kts 247°
2026-04-21 23:15 35.55429 -90.02106 40197 ft 436 kts 247°
2026-04-21 23:16 35.52799 -90.08796 40195 ft 435 kts 247°
2026-04-21 23:16 35.50157 -90.15503 40193 ft 436 kts 247°
2026-04-21 23:17 35.47501 -90.22231 40194 ft 437 kts 247°
2026-04-21 23:17 35.44853 -90.28926 40183 ft 437 kts 247°
2026-04-21 23:18 35.42302 -90.35361 40183 ft 437 kts 247°
2026-04-21 23:18 35.39632 -90.42084 40180 ft 437 kts 247°
2026-04-21 23:19 35.36973 -90.48766 40183 ft 438 kts 247°
2026-04-21 23:19 35.34331 -90.55390 40185 ft 438 kts 247°
2026-04-21 23:20 35.31719 -90.61929 40179 ft 437 kts 247°
2026-04-21 23:20 35.29089 -90.68498 40186 ft 437 kts 247°
2026-04-21 23:21 35.26408 -90.75179 40186 ft 437 kts 246°
2026-04-21 23:21 35.23705 -90.81903 40187 ft 438 kts 246°
2026-04-21 23:22 35.21020 -90.88570 40188 ft 438 kts 246°
2026-04-21 23:22 35.18305 -90.95294 40186 ft 438 kts 246°
2026-04-21 23:23 35.15581 -91.02029 40181 ft 439 kts 246°
2026-04-21 23:23 35.12848 -91.08772 40177 ft 439 kts 246°
2026-04-21 23:24 35.10132 -91.15459 40176 ft 439 kts 247°
2026-04-21 23:24 35.07406 -91.22158 40177 ft 439 kts 247°
2026-04-21 23:25 35.04658 -91.28896 40181 ft 439 kts 246°
2026-04-21 23:25 35.01907 -91.35629 40177 ft 439 kts 246°
2026-04-21 23:26 34.99178 -91.42297 40184 ft 439 kts 246°
2026-04-21 23:26 34.96424 -91.49006 40182 ft 440 kts 246°
2026-04-21 23:27 34.93686 -91.55667 40197 ft 440 kts 246°
2026-04-21 23:27 34.90944 -91.62326 40187 ft 441 kts 246°
2026-04-21 23:28 34.88158 -91.69075 40192 ft 441 kts 246°
2026-04-21 23:28 34.85401 -91.75742 40195 ft 441 kts 246°
2026-04-21 23:29 34.82685 -91.82296 40187 ft 440 kts 246°
2026-04-21 23:29 34.79906 -91.88989 40203 ft 440 kts 246°
2026-04-21 23:30 34.77196 -91.95505 40199 ft 440 kts 246°
2026-04-21 23:30 34.74421 -92.02162 40214 ft 440 kts 246°
2026-04-21 23:31 34.71634 -92.08835 40214 ft 440 kts 246°
2026-04-21 23:31 34.68852 -92.15483 40211 ft 442 kts 246°
2026-04-21 23:32 34.65544 -92.21833 40207 ft 446 kts 237°
2026-04-21 23:32 34.61876 -92.27915 40211 ft 445 kts 237°
2026-04-21 23:33 34.58226 -92.33969 40216 ft 445 kts 237°
2026-04-21 23:33 34.54550 -92.40057 40208 ft 445 kts 237°
2026-04-21 23:34 34.50936 -92.46034 40220 ft 445 kts 237°
2026-04-21 23:34 34.47245 -92.52128 40201 ft 445 kts 237°
2026-04-21 23:35 34.43631 -92.58089 40210 ft 444 kts 238°
2026-04-21 23:35 34.40106 -92.63893 40210 ft 444 kts 237°
2026-04-21 23:36 34.36390 -92.70002 40215 ft 445 kts 237°
2026-04-21 23:36 34.32697 -92.76063 40200 ft 445 kts 237°
2026-04-21 23:37 34.29025 -92.82079 40210 ft 444 kts 237°
2026-04-21 23:37 34.25367 -92.88063 40214 ft 444 kts 237°
2026-04-21 23:38 34.21756 -92.93959 40220 ft 444 kts 237°
2026-04-21 23:38 34.18051 -93.00000 40216 ft 445 kts 237°
2026-04-21 23:39 34.14368 -93.05995 40230 ft 444 kts 237°
2026-04-21 23:39 34.10687 -93.11977 40228 ft 443 kts 237°
2026-04-21 23:40 34.06993 -93.17969 40224 ft 442 kts 237°
2026-04-21 23:40 34.03308 -93.23938 40229 ft 442 kts 237°
2026-04-21 23:41 33.99620 -93.29901 40210 ft 442 kts 237°
2026-04-21 23:41 33.95929 -93.35859 40224 ft 442 kts 237°
2026-04-21 23:42 33.92222 -93.41833 40228 ft 442 kts 237°
2026-04-21 23:42 33.88485 -93.47848 40219 ft 443 kts 237°
2026-04-21 23:43 33.84755 -93.53838 40213 ft 443 kts 237°
2026-04-21 23:43 33.81033 -93.59808 40216 ft 443 kts 237°
2026-04-21 23:44 33.77477 -93.65503 40221 ft 443 kts 236°
2026-04-21 23:44 33.73737 -93.71482 40223 ft 444 kts 236°
2026-04-21 23:45 33.68163 -93.80373 40215 ft 443 kts 237°
2026-04-21 23:46 33.64437 -93.86304 40216 ft 443 kts 237°
2026-04-21 23:46 33.60704 -93.92238 40215 ft 443 kts 236°
2026-04-21 23:47 33.56962 -93.98176 40223 ft 443 kts 237°
2026-04-21 23:47 33.53401 -94.03818 40232 ft 443 kts 236°
2026-04-21 23:48 33.49675 -94.09712 40228 ft 443 kts 237°
2026-04-21 23:48 33.45995 -94.15525 40222 ft 444 kts 236°
2026-04-21 23:49 33.42254 -94.21423 40216 ft 444 kts 236°
2026-04-21 23:49 33.38511 -94.27316 40209 ft 443 kts 237°
2026-04-21 23:50 33.34757 -94.33218 40207 ft 443 kts 237°
2026-04-21 23:50 33.31012 -94.39095 40205 ft 443 kts 237°
2026-04-21 23:51 33.27306 -94.44900 40204 ft 444 kts 237°
2026-04-21 23:51 33.23529 -94.50808 40197 ft 444 kts 237°
2026-04-21 23:52 33.19757 -94.56701 40198 ft 444 kts 237°
2026-04-21 23:52 33.16048 -94.62483 40200 ft 444 kts 237°
2026-04-21 23:53 33.12305 -94.68311 40202 ft 444 kts 236°
2026-04-21 23:53 33.08526 -94.74186 40203 ft 444 kts 236°
2026-04-21 23:54 33.04748 -94.80050 40202 ft 445 kts 236°
2026-04-21 23:54 33.00946 -94.85941 40207 ft 445 kts 236°
2026-04-21 23:55 32.97149 -94.91818 40202 ft 445 kts 236°
2026-04-21 23:55 32.93350 -94.97684 40203 ft 445 kts 236°
2026-04-21 23:56 32.89634 -95.03415 40200 ft 443 kts 236°
2026-04-21 23:56 32.85864 -95.09222 40185 ft 442 kts 237°
2026-04-21 23:57 32.82072 -95.15051 40219 ft 442 kts 236°
2026-04-21 23:57 32.78304 -95.20837 40200 ft 443 kts 236°
2026-04-21 23:58 32.74518 -95.26641 40210 ft 443 kts 236°
2026-04-21 23:58 32.70719 -95.32455 40209 ft 443 kts 236°
2026-04-21 23:59 32.66922 -95.38255 40212 ft 441 kts 237°
2026-04-21 23:59 32.63184 -95.43958 40212 ft 440 kts 236°
2026-04-22 00:00 32.59421 -95.49690 40203 ft 439 kts 236°
2026-04-22 00:00 32.55656 -95.55418 40204 ft 439 kts 237°
2026-04-22 00:01 32.51885 -95.61145 40190 ft 439 kts 236°
2026-04-22 00:01 32.48111 -95.66868 40203 ft 438 kts 236°
2026-04-22 00:02 32.44324 -95.72601 40196 ft 438 kts 236°
2026-04-22 00:02 32.40554 -95.78301 40192 ft 438 kts 236°
2026-04-22 00:03 32.36779 -95.83999 40187 ft 437 kts 236°
2026-04-22 00:03 32.32983 -95.89720 40180 ft 437 kts 236°
2026-04-22 00:04 32.29200 -95.95412 40182 ft 435 kts 236°
2026-04-22 00:04 32.25433 -96.01073 40172 ft 435 kts 236°
2026-04-22 00:05 32.21677 -96.06708 40180 ft 434 kts 236°
2026-04-22 00:05 32.17931 -96.12320 40185 ft 434 kts 236°
2026-04-22 00:06 32.14166 -96.17951 40176 ft 434 kts 236°
2026-04-22 00:06 32.10410 -96.23563 40177 ft 434 kts 236°
2026-04-22 00:07 32.06657 -96.29160 40183 ft 433 kts 236°
2026-04-22 00:07 32.02893 -96.34766 40184 ft 433 kts 236°
2026-04-22 00:08 31.99134 -96.40356 40182 ft 435 kts 236°
2026-04-22 00:08 31.95365 -96.45954 40175 ft 435 kts 236°
2026-04-22 00:09 31.91610 -96.51521 39702 ft 435 kts 236°
2026-04-22 00:09 31.89744 -96.54282 39154 ft 430 kts 236°
2026-04-22 00:09 31.87865 -96.57060 38607 ft 424 kts 236°
2026-04-22 00:09 31.86040 -96.59757 38076 ft 419 kts 236°
2026-04-22 00:10 31.84224 -96.62439 37520 ft 414 kts 237°
2026-04-22 00:10 31.82450 -96.65057 36992 ft 409 kts 236°
2026-04-22 00:10 31.80664 -96.67693 36442 ft 407 kts 236°
2026-04-22 00:10 31.78901 -96.70296 35906 ft 409 kts 237°
2026-04-22 00:11 31.77120 -96.72924 35350 ft 410 kts 237°
2026-04-22 00:11 31.75341 -96.75546 34808 ft 411 kts 237°
2026-04-22 00:11 31.73527 -96.78217 34256 ft 412 kts 237°
2026-04-22 00:11 31.71738 -96.80849 33710 ft 413 kts 237°
2026-04-22 00:12 31.69937 -96.83497 33172 ft 414 kts 237°
2026-04-22 00:12 31.68139 -96.86139 32613 ft 416 kts 236°
2026-04-22 00:12 31.66328 -96.88799 32063 ft 418 kts 236°
2026-04-22 00:12 31.64504 -96.91475 31506 ft 420 kts 236°
2026-04-22 00:13 31.62674 -96.94159 30943 ft 422 kts 236°
2026-04-22 00:13 31.60825 -96.96867 30379 ft 425 kts 236°
2026-04-22 00:13 31.58952 -96.99610 29805 ft 427 kts 236°
2026-04-22 00:13 31.57105 -97.02312 29241 ft 429 kts 236°
2026-04-22 00:14 31.55227 -97.05041 28671 ft 428 kts 234°
2026-04-22 00:14 31.53052 -97.07476 28092 ft 434 kts 222°
2026-04-22 00:14 31.50390 -97.09255 27501 ft 440 kts 208°
2026-04-22 00:14 31.47480 -97.10450 26877 ft 441 kts 204°
2026-04-22 00:15 31.44572 -97.11579 26308 ft 436 kts 204°
2026-04-22 00:15 31.41740 -97.12683 25727 ft 431 kts 204°
2026-04-22 00:15 31.38887 -97.13796 25156 ft 424 kts 203°
2026-04-22 00:15 31.36093 -97.14883 24590 ft 416 kts 203°
2026-04-22 00:16 31.33399 -97.15933 24050 ft 409 kts 203°
2026-04-22 00:16 31.30701 -97.16984 23509 ft 403 kts 203°
2026-04-22 00:16 31.28047 -97.18018 22969 ft 396 kts 203°
2026-04-22 00:16 31.25461 -97.19024 22461 ft 389 kts 203°
2026-04-22 00:17 31.22908 -97.20019 21925 ft 385 kts 203°
2026-04-22 00:17 31.20357 -97.21014 21426 ft 383 kts 203°
2026-04-22 00:17 31.17818 -97.22004 20914 ft 381 kts 203°
2026-04-22 00:17 31.15283 -97.22992 20412 ft 378 kts 203°
2026-04-22 00:18 31.12816 -97.23952 19894 ft 372 kts 202°
2026-04-22 00:18 31.10355 -97.24908 19430 ft 366 kts 202°
2026-04-22 00:18 31.07940 -97.25847 18928 ft 361 kts 203°
2026-04-22 00:18 31.05569 -97.26768 18455 ft 355 kts 203°
2026-04-22 00:19 31.03235 -97.27674 17966 ft 351 kts 203°
2026-04-22 00:19 31.00881 -97.28590 17380 ft 349 kts 203°
2026-04-22 00:19 30.98588 -97.29479 16923 ft 344 kts 203°
2026-04-22 00:19 30.96314 -97.30361 16445 ft 339 kts 202°
2026-04-22 00:20 30.94076 -97.31229 15975 ft 332 kts 202°
2026-04-22 00:20 30.91926 -97.32061 15550 ft 320 kts 203°
2026-04-22 00:20 30.89829 -97.32880 15166 ft 310 kts 203°
2026-04-22 00:20 30.87777 -97.33685 14746 ft 312 kts 203°
2026-04-22 00:21 30.85692 -97.34503 14317 ft 310 kts 203°
2026-04-22 00:21 30.83647 -97.35304 13896 ft 307 kts 203°
2026-04-22 00:21 30.81616 -97.36102 13497 ft 303 kts 204°
2026-04-22 00:21 30.79693 -97.37094 13094 ft 298 kts 211°
2026-04-22 00:22 30.77827 -97.38171 12708 ft 298 kts 211°
2026-04-22 00:22 30.75942 -97.39255 12300 ft 298 kts 210°
2026-04-22 00:22 30.74075 -97.40324 11893 ft 296 kts 210°
2026-04-22 00:22 30.72201 -97.41397 11509 ft 294 kts 210°
2026-04-22 00:23 30.70340 -97.42462 11101 ft 292 kts 210°
2026-04-22 00:23 30.68511 -97.43507 10718 ft 291 kts 210°
2026-04-22 00:23 30.66672 -97.44558 10317 ft 289 kts 210°
2026-04-22 00:23 30.64855 -97.45595 9944 ft 288 kts 209°
2026-04-22 00:24 30.63049 -97.46625 9578 ft 287 kts 209°
2026-04-22 00:24 30.61249 -97.47651 9172 ft 285 kts 209°
2026-04-22 00:24 30.59452 -97.48673 8831 ft 280 kts 209°
2026-04-22 00:24 30.57701 -97.49670 8424 ft 278 kts 208°
2026-04-22 00:25 30.55980 -97.50648 8061 ft 270 kts 208°
2026-04-22 00:25 30.54307 -97.51598 7717 ft 262 kts 208°
2026-04-22 00:25 30.52661 -97.52533 7356 ft 255 kts 208°
2026-04-22 00:25 30.51080 -97.53431 7025 ft 248 kts 208°
2026-04-22 00:26 30.49534 -97.54308 6696 ft 242 kts 208°
2026-04-22 00:26 30.48025 -97.55165 6373 ft 236 kts 207°
2026-04-22 00:26 30.46551 -97.56001 6051 ft 229 kts 207°
2026-04-22 00:26 30.45149 -97.56796 5762 ft 224 kts 206°
2026-04-22 00:27 30.43764 -97.57631 5479 ft 224 kts 213°
2026-04-22 00:27 30.42599 -97.58859 5195 ft 220 kts 224°
2026-04-22 00:27 30.41531 -97.60126 4878 ft 218 kts 223°
2026-04-22 00:27 30.40469 -97.61372 4590 ft 215 kts 221°
2026-04-22 00:28 30.39430 -97.62592 4303 ft 213 kts 222°
2026-04-22 00:28 30.38357 -97.63774 4021 ft 205 kts 213°
2026-04-22 00:28 30.37233 -97.64323 3816 ft 186 kts 191°
2026-04-22 00:28 30.36002 -97.64661 3536 ft 176 kts 189°
2026-04-22 00:29 30.34846 -97.64986 3287 ft 166 kts 189°
2026-04-22 00:29 30.33701 -97.65305 3053 ft 168 kts 188°
2026-04-22 00:29 30.32578 -97.65621 2810 ft 161 kts 188°
2026-04-22 00:29 30.31498 -97.65923 2597 ft 158 kts 187°
2026-04-22 00:30 30.30409 -97.66065 2431 ft 155 kts 176°
2026-04-22 00:30 30.29323 -97.66039 2228 ft 154 kts 174°
2026-04-22 00:30 30.28237 -97.65997 2030 ft 153 kts 174°
2026-04-22 00:30 30.27238 -97.65975 1834 ft 133 kts 173°
2026-04-22 00:31 30.26286 -97.65951 1649 ft 135 kts 172°
2026-04-22 00:31 30.25334 -97.65921 1480 ft 135 kts 172°
2026-04-22 00:31 30.24390 -97.65897 1303 ft 131 kts 173°
2026-04-22 00:31 30.23488 -97.65875 1126 ft 127 kts 173°
2026-04-22 00:32 30.22612 -97.65852 961 ft 123 kts 173°
2026-04-22 00:32 30.21749 -97.65828 799 ft 123 kts 173°
2026-04-22 00:32 30.20885 -97.65803 630 ft 122 kts 174°
2026-04-22 00:32 30.20035 -97.65791 487 ft 112 kts 175°
2026-04-22 00:33 30.19369 -97.65754 480 ft 73 kts 179°
2026-04-22 00:33 30.19072 -97.65755 479 ft 20 kts 186°
2026-04-22 00:33 30.18960 -97.65769 480 ft 13 kts 189°
2026-04-22 00:33 30.18863 -97.65796 481 ft 15 kts 211°
2026-04-22 00:34 30.18823 -97.65837 481 ft 3 kts 226°
2026-04-22 00:34 30.18795 -97.65868 481 ft 7 kts 213°
2026-04-22 00:34 30.18731 -97.65875 481 ft 11 kts 178°
2026-04-22 00:34 30.18642 -97.65869 481 ft 14 kts 177°
2026-04-22 00:35 30.18537 -97.65868 483 ft 15 kts 181°
2026-04-22 00:35 30.18415 -97.65865 484 ft 18 kts 177°
2026-04-22 00:35 30.18271 -97.65859 483 ft 22 kts 179°
2026-04-22 00:35 30.18149 -97.65856 481 ft 15 kts 179°
2026-04-22 00:36 30.18024 -97.65853 478 ft 20 kts 178°
2026-04-22 00:36 30.17935 -97.65859 477 ft 11 kts 210°
2026-04-22 00:36 30.17943 -97.65942 479 ft 13 kts 307°
2026-04-22 00:36 30.17947 -97.66063 475 ft 19 kts 267°
2026-04-22 00:37 30.17979 -97.66121 474 ft 7 kts 320°
2026-04-22 00:37 30.18006 -97.66180 476 ft 9 kts 291°
2026-04-22 00:37 30.18021 -97.66249 477 ft 4 kts 273°
2026-04-22 00:37 30.18030 -97.66290 478 ft 5 kts 323°
2026-04-22 00:38 30.18041 -97.66292 478 ft 0 kts 354°